AirNav   Pilot Hours Calculator
 
 626 users online  

5GA3 Eagles Landing Airport
Williamson, Georgia, USA

GOING TO WILLIAMSON?


FAA INFORMATION EFFECTIVE 26 JANUARY 2023

Location

FAA Identifier: 5GA3
Lat/Long: 33-09-36.4350N 084-21-54.7230W
33-09.607250N 084-21.912050W
33.1601208,-84.3652008
(estimated)
Elevation: 980 ft. / 299 m (estimated)
Variation: 02W (1985)
From city: 1 mile SW of WILLIAMSON, GA
Time zone: UTC -5 (UTC -4 during Daylight Saving Time)
Zip code: 30292

Airport Operations

Airport use: Private use. Permission required prior to landing
Activation date: 11/1978
Control tower: no
ARTCC: ATLANTA CENTER
FSS: MACON FLIGHT SERVICE STATION
Attendance: IREG
Wind indicator: yes, ARPT HAS 4 WIND INDICATORS.
Segmented circle: no

Airport Communications

CTAF: 122.725
WX AWOS-3 at 6A2 (6 nm NE): 119.750 (770-227-3934)
WX AWOS-3 at OPN (13 nm S): 133.975 (706-646-4123)
WX AWOS-3 at HMP (14 nm N): 124.825 (770-707-1719)
WX ASOS at FFC (16 nm NW): 118.525 (770-487-1610)

Nearby radio navigation aids

NDB name  Hdg/Dist  Freq  Var  ID
PECAT149/10.431605WFFC ..-. ..-. -.-.
COWETA COUNTY111/18.423403WEQQ . --.- --.-

Airport Services

Runway Information

Runway 18/36

Dimensions: 3500 x 100 ft. / 1067 x 30 m
Surface: turf
RUNWAY 18  RUNWAY 36
Traffic pattern: leftright
Obstructions: 50 ft. trees, 400 ft. from runwaynone

Runway 13/31

Dimensions: 2500 x 100 ft. / 762 x 30 m
Surface: turf
Runway edge lights: SOLAR PWRD RWY LTG ON SS-SR.
RUNWAY 13  RUNWAY 31
Traffic pattern: leftright
Obstructions: 50 ft. trees, 400 ft. from runway, 1:1 slope to clearnone

Airport Ownership and Management from official FAA records

Ownership: Privately-owned
Owner: EAGLES LANDING HOA
P.O. BOX 159
WILLIAMSON, GA 30292-9774
Phone 770-229-1725
Manager: PAT MCGINN
271 LUFBERY CIRCLE
WILLIAMSON, GA 30292-9774
Phone 404-234-1666
770-229-1725.

Airport Operational Statistics

Aircraft based on the field: 32
Single engine airplanes: 26
Multi engine airplanes: 3
Ultralights: 3
    

Additional Remarks

E111-2 ARPT USERS ARE BRIEFED ON THE OPERATIONAL AGREEMENTS & INSTRUCTED TO BE ALERT FOR & GIVE WAY TO ACFT OPERATING IN THE PEACH STATE GLIDERPORT TFC PAT.
FOR CD CTC ATLANTA APCH AT 678-364-6131.
WE SHARE THE SAME CTAF FREQ 122.725 WITH PEACH STATE (GA2) DUE TO OVERLAPPING TFC PATS.

Instrument Procedures

There are no published instrument procedures at 5GA3.

Some nearby airports with instrument procedures:

6A2 - Griffin-Spalding County Airport (6 nm NE)
KOPN - Thomaston-Upson County Airport (13 nm S)
KHMP - Atlanta Speedway Airport (14 nm N)
KFFC - Atlanta Regional Airport-Falcon Field (16 nm NW)
KCCO - Newnan Coweta County Airport (22 nm NW)
 
Loc | Ops | Rwys | IFR | FBO | Links
Com | Nav | Svcs | Stats | Notes
Area around 5GA3 (Eagles Landing Airport)
 
Road maps at: MapQuest Bing Google
 
Aerial photo
No photo
 
Sectional chart

 
Airport distance calculator
Flying to Eagles Landing Airport? Find the distance to fly.

From to 5GA3

Sunrise and sunset
Times for 29-Jan-2023
 Local
(UTC-5)
 Zulu
(UTC)
Morning civil twilight07:1012:10
Sunrise07:3612:36
Sunset18:0523:05
Evening civil twilight18:3123:31

Current date and time
Zulu (UTC)  29-Jan-2023 06:44:32
Local (UTC-5)  29-Jan-2023 01:44:32
 
METAR
K6A2 
6nm NE 
290635Z AUTO 00000KT 10SM CLR 04/M02 A3032 RMK AO2
KOPN 
14nm S 
290635Z AUTO 00000KT 10SM CLR 03/M02 A3032 RMK AO2
KHMP 
14nm N 
290635Z AUTO 00000KT 10SM CLR 03/M01 A3034 RMK AO2 T00271006
KFFC 
15nm NW 
290553Z AUTO 00000KT 10SM CLR 05/M01 A3033 RMK AO2 SLP272 T00501006 10094 20050 56005
TAF
KATL 
29nm N 
290555Z 2906/3012 16005KT P6SM SCT150 BKN180 BKN250 FM291600 17006KT P6SM BKN040 OVC120 FM291900 16005KT P6SM OVC030 PROB30 2919/2923 4SM -SHRA BR OVC015 FM292300 09005KT 6SM -SHRA BR OVC009 FM300100 11006KT 4SM SHRA BR OVC005
NOTAMs
Click for the latest NOTAMs
NOTAMs are issued by the DoD/FAA and will open in a separate window not controlled by AirNav.

 

 
 

Would you like to see your business listed on this page?

 If your business provides an interesting product or service to pilots, flight crews, aircraft, or users of the Eagles Landing Airport, you should consider listing it here.  To start the listing process, click on the button below
 
Add a business
 

Other Pages about Eagles Landing Airport

Update a link
 
Copyright © AirNav, LLC. All rights reserved. Privacy Policy  Contact